| time (UTC) | temp F | wind direction | speed knots | gust knots | rain 1hr in | rain 24hr in | rain mn in | humidity % | barometer mb |
| 20260504044541 | 50 | 0 | 0.0 | 0.0 | 0.00 | 0.00 | 0.00 | 86 | 1018.4 |
| 20260504043030 | 50 | 0 | 0.0 | 0.0 | 0.00 | 0.00 | 0.00 | 86 | 1018.4 |
| 20260504041530 | 50 | 0 | 0.0 | 0.0 | 0.00 | 0.00 | 0.00 | 85 | 1018.3 |
| 20260504040032 | 51 | 0 | 0.0 | 0.0 | 0.00 | 0.00 | 0.00 | 84 | 1018.3 |
| 20260504034530 | 51 | 0 | 0.0 | 0.0 | 0.00 | 0.00 | 0.00 | 84 | 1018.4 |
| 20260504033030 | 52 | 0 | 0.0 | 0.9 | 0.00 | 0.00 | 0.00 | 83 | 1018.4 |
| 20260504031531 | 52 | 0 | 0.0 | 0.9 | 0.00 | 0.00 | 0.00 | 81 | 1018.2 |
| 20260504030028 | 53 | 0 | 0.0 | 0.0 | 0.00 | 0.00 | 0.00 | 79 | 1018.2 |
| 20260504024530 | 54 | 0 | 0.0 | 0.0 | 0.00 | 0.00 | 0.00 | 79 | 1018.1 |
| 20260504023030 | 54 | 0 | 0.0 | 0.9 | 0.00 | 0.00 | 0.00 | 76 | 1017.8 |
| 20260504021529 | 55 | 0 | 0.0 | 0.0 | 0.00 | 0.00 | 0.00 | 75 | 1017.6 |
| 20260504020028 | 55 | 0 | 0.0 | 0.0 | 0.00 | 0.00 | 0.00 | 74 | 1017.4 |
| 20260504014528 | 56 | 0 | 0.0 | 2.6 | 0.00 | 0.00 | 0.00 | 71 | 1017.2 |
| 20260504013036 | 58 | 0 | 0.0 | 0.0 | 0.00 | 0.00 | 0.00 | 69 | 1017.1 |
| 20260504011528 | 59 | 0 | 0.0 | 0.0 | 0.00 | 0.00 | 0.00 | 66 | 1016.9 |
| 20260504010029 | 61 | 0 | 0.0 | 0.0 | 0.00 | 0.00 | 0.00 | 62 | 1016.8 |
| 20260504004528 | 62 | 0 | 0.0 | 0.0 | 0.00 | 0.00 | 0.00 | 54 | 1016.6 |
| 20260504003032 | 64 | 0 | 0.0 | 0.0 | 0.00 | 0.00 | 0.00 | 52 | 1016.4 |
| 20260504001530 | 65 | 0 | 0.0 | 0.0 | 0.00 | 0.00 | 0.00 | 46 | 1016.4 |
| 20260504000027 | 67 | 0 | 0.0 | 0.9 | 0.00 | 0.00 | 0.00 | 46 | 1016.4 |
| 20260503234528 | 68 | 0 | 0.0 | 2.6 | 0.00 | 0.00 | 0.00 | 41 | 1016.3 |
| 20260503233035 | 70 | 341 | 0.0 | 4.3 | 0.00 | 0.00 | 0.00 | 38 | 1016.2 |
| 20260503231528 | 70 | 318 | 0.0 | 1.7 | 0.00 | 0.00 | 0.00 | 37 | 1016.3 |
| 20260503230032 | 71 | 0 | 0.0 | 2.6 | 0.00 | 0.00 | 0.00 | 37 | 1016.3 |
| 20260503224531 | 72 | 184 | 0.9 | 3.5 | 0.00 | 0.00 | 0.00 | 34 | 1016.5 |
| 20260503223028 | 72 | 42 | 0.9 | 7.0 | 0.00 | 0.00 | 0.00 | 33 | 1016.4 |
| 20260503221528 | 72 | 144 | 0.9 | 4.3 | 0.00 | 0.00 | 0.00 | 32 | 1016.5 |
| 20260503220028 | 72 | 0 | 0.0 | 5.2 | 0.00 | 0.00 | 0.00 | 31 | 1016.6 |
| 20260503214534 | 72 | 181 | 1.7 | 5.2 | 0.00 | 0.00 | 0.00 | 32 | 1016.7 |
| 20260503213029 | 72 | 235 | 0.0 | 7.0 | 0.00 | 0.00 | 0.00 | 32 | 1016.8 |
| 20260503211533 | 72 | 306 | 0.9 | 4.3 | 0.00 | 0.00 | 0.00 | 31 | 1016.8 |
| 20260503210030 | 72 | 137 | 1.7 | 7.8 | 0.00 | 0.00 | 0.00 | 32 | 1017.0 |
| 20260503204532 | 72 | 157 | 1.7 | 7.8 | 0.00 | 0.00 | 0.00 | 35 | 1017.1 |
| 20260503203030 | 72 | 179 | 0.9 | 4.3 | 0.00 | 0.00 | 0.00 | 33 | 1017.2 |
| 20260503201530 | 72 | 155 | 0.9 | 4.3 | 0.00 | 0.00 | 0.00 | 34 | 1017.4 |
| 20260503200031 | 71 | 207 | 0.9 | 4.3 | 0.00 | 0.00 | 0.00 | 33 | 1017.6 |
| 20260503194526 | 71 | 146 | 0.9 | 5.2 | 0.00 | 0.00 | 0.00 | 37 | 1017.9 |
| 20260503193027 | 70 | 147 | 0.9 | 4.3 | 0.00 | 0.00 | 0.00 | 34 | 1018.1 |
| 20260503191530 | 70 | 278 | 1.7 | 7.8 | 0.00 | 0.00 | 0.00 | 36 | 1018.3 |
| 20260503190041 | 70 | 221 | 0.9 | 4.3 | 0.00 | 0.00 | 0.00 | 36 | 1018.5 |
| 20260503184527 | 69 | 194 | 1.7 | 4.3 | 0.00 | 0.00 | 0.00 | 36 | 1018.7 |
| 20260503183028 | 69 | 103 | 0.9 | 6.1 | 0.00 | 0.00 | 0.00 | 39 | 1019.0 |
| 20260503181528 | 68 | 0 | 0.0 | 4.3 | 0.00 | 0.00 | 0.00 | 40 | 1019.2 |
| 20260503180037 | 68 | 186 | 1.7 | 5.2 | 0.00 | 0.00 | 0.00 | 37 | 1019.3 |
| 20260503174529 | 67 | 300 | 0.0 | 3.5 | 0.00 | 0.00 | 0.00 | 41 | 1019.4 |
| 20260503173028 | 67 | 213 | 2.6 | 7.8 | 0.00 | 0.00 | 0.00 | 41 | 1019.5 |
| 20260503171538 | 66 | 153 | 1.7 | 4.3 | 0.00 | 0.00 | 0.00 | 41 | 1019.7 |
| 20260503081538 | 46 | 0 | 0.0 | 0.0 | 0.00 | 0.09 | 0.00 | 85 | 1017.8 |